Time,TemperatureF,DewpointF,PressureIn,WindDirection,WindDirectionDegrees,WindSpeedMPH,WindSpeedGustMPH,Humidity,HourlyPrecipIn,Conditions,Clouds,dailyrainin,SoftwareType,DateUTC
2013-01-17 00:00:00,66.9,66.6,30.06,South,180,0.0,2.0,99,0.00,,,0.00,meteohub,2013-01-17 05:00:00,
2013-01-17 00:03:00,66.9,66.6,30.06,South,180,0.0,2.0,99,0.00,,,0.00,meteohub,2013-01-17 05:03:00,
2013-01-17 00:04:00,66.9,66.6,30.06,South,180,0.0,2.0,99,0.00,,,0.00,meteohub,2013-01-17 05:04:00,
2013-01-17 00:10:00,67.1,66.7,30.06,South,180,0.0,0.0,99,0.00,,,0.00,meteohub,2013-01-17 05:10:00,
2013-01-17 00:11:00,67.1,66.7,30.06,South,180,0.0,0.0,99,0.00,,,0.00,meteohub,2013-01-17 05:11:00,
2013-01-17 00:16:00,66.9,66.6,30.06,South,180,0.0,0.0,99,0.00,,,0.00,meteohub,2013-01-17 05:16:00,
2013-01-17 00:21:00,66.7,66.4,30.06,South,180,0.0,0.0,99,0.00,,,0.00,meteohub,2013-01-17 05:21:00,
2013-01-17 00:26:00,66.6,66.2,30.06,South,180,0.0,0.0,99,0.00,,,0.00,meteohub,2013-01-17 05:26:00,
2013-01-17 00:31:00,66.2,65.8,30.06,South,180,0.0,0.0,99,0.00,,,0.00,meteohub,2013-01-17 05:31:00,
2013-01-17 00:37:00,66.0,65.7,30.06,South,180,0.0,0.0,99,0.00,,,0.00,meteohub,2013-01-17 05:37:00,
2013-01-17 00:42:00,65.8,65.5,30.06,South,180,0.0,0.0,99,0.00,,,0.00,meteohub,2013-01-17 05:42:00,
2013-01-17 00:47:00,65.7,65.3,30.06,South,180,0.0,0.0,99,0.00,,,0.00,meteohub,2013-01-17 05:47:00,
2013-01-17 00:52:00,65.5,65.1,30.06,South,180,0.0,0.0,99,0.00,,,0.00,meteohub,2013-01-17 05:52:00,
2013-01-17 00:57:00,65.3,64.9,30.06,South,180,0.0,0.0,99,0.00,,,0.00,meteohub,2013-01-17 05:57:00,
2013-01-17 01:02:00,65.1,64.8,30.06,South,180,0.0,0.0,99,0.00,,,0.00,meteohub,2013-01-17 06:02:00,
2013-01-17 01:07:00,64.6,64.2,30.06,South,180,0.0,0.0,99,0.00,,,0.00,meteohub,2013-01-17 06:07:00,
2013-01-17 01:12:00,64.4,64.0,30.06,South,180,0.0,0.0,99,0.00,,,0.00,meteohub,2013-01-17 06:12:00,
2013-01-17 01:17:00,64.2,63.9,30.06,South,180,0.0,0.0,99,0.00,,,0.00,meteohub,2013-01-17 06:17:00,
2013-01-17 01:23:00,64.2,63.9,30.06,South,180,0.0,0.0,99,0.00,,,0.00,meteohub,2013-01-17 06:23:00,
2013-01-17 01:28:00,64.0,63.7,30.06,South,180,0.0,0.0,99,0.00,,,0.00,meteohub,2013-01-17 06:28:00,
2013-01-17 01:33:00,63.9,63.5,30.06,South,180,0.0,0.0,99,0.00,,,0.00,meteohub,2013-01-17 06:33:00,
2013-01-17 01:38:00,63.9,63.5,30.06,South,180,0.0,0.0,99,0.00,,,0.00,meteohub,2013-01-17 06:38:00,
2013-01-17 01:43:00,63.9,63.5,30.06,South,180,0.0,0.0,99,0.00,,,0.00,meteohub,2013-01-17 06:43:00,
2013-01-17 01:56:00,63.5,63.1,30.06,South,180,0.0,0.0,99,0.00,,,0.00,meteohub,2013-01-17 06:56:00,
2013-01-17 02:01:00,63.5,63.1,30.06,South,180,0.0,0.0,99,0.00,,,0.00,meteohub,2013-01-17 07:01:00,
2013-01-17 02:06:00,63.5,63.1,30.06,South,180,0.0,0.0,99,0.00,,,0.00,meteohub,2013-01-17 07:06:00,
2013-01-17 02:11:00,63.1,62.8,30.06,South,180,0.0,0.0,99,0.00,,,0.00,meteohub,2013-01-17 07:11:00,
2013-01-17 02:16:00,63.0,62.6,30.06,South,180,0.0,0.0,99,0.00,,,0.00,meteohub,2013-01-17 07:16:00,
2013-01-17 02:21:00,62.8,62.4,30.06,South,180,0.0,0.0,99,0.00,,,0.00,meteohub,2013-01-17 07:21:00,
2013-01-17 02:26:00,63.0,62.6,30.05,South,180,0.0,0.0,99,0.00,,,0.00,meteohub,2013-01-17 07:26:00,
2013-01-17 02:31:00,63.1,62.8,30.05,South,180,0.0,0.0,99,0.00,,,0.00,meteohub,2013-01-17 07:31:00,
2013-01-17 02:36:00,63.1,62.8,30.05,South,180,0.0,0.0,99,0.00,,,0.00,meteohub,2013-01-17 07:36:00,
2013-01-17 02:41:00,63.1,62.8,30.05,South,180,0.0,0.0,99,0.00,,,0.00,meteohub,2013-01-17 07:41:00,
2013-01-17 02:47:00,63.7,63.3,30.05,South,180,0.0,0.0,99,0.00,,,0.00,meteohub,2013-01-17 07:47:00,
2013-01-17 02:52:00,63.3,63.0,30.05,South,180,0.0,0.0,99,0.00,,,0.00,meteohub,2013-01-17 07:52:00,
2013-01-17 02:57:00,63.3,63.0,30.06,South,180,0.0,0.0,99,0.00,,,0.00,meteohub,2013-01-17 07:57:00,
2013-01-17 03:02:00,63.1,62.8,30.05,South,180,0.0,0.0,99,0.00,,,0.00,meteohub,2013-01-17 08:02:00,
2013-01-17 03:07:00,63.1,62.8,30.06,South,180,0.0,0.0,99,0.00,,,0.00,meteohub,2013-01-17 08:07:00,
2013-01-17 03:12:00,62.8,62.4,30.06,South,180,0.0,0.0,99,0.00,,,0.00,meteohub,2013-01-17 08:12:00,
2013-01-17 03:17:00,62.6,62.2,30.05,South,180,0.0,0.0,99,0.00,,,0.00,meteohub,2013-01-17 08:17:00,
2013-01-17 03:22:00,62.2,61.9,30.06,South,180,0.0,0.0,99,0.00,,,0.00,meteohub,2013-01-17 08:22:00,
2013-01-17 03:27:00,62.2,61.9,30.06,South,180,0.0,0.0,99,0.00,,,0.00,meteohub,2013-01-17 08:27:00,
2013-01-17 03:32:00,62.1,61.7,30.06,South,180,0.0,0.0,99,0.00,,,0.00,meteohub,2013-01-17 08:32:00,
2013-01-17 03:37:00,62.2,61.9,30.06,South,180,0.0,0.0,99,0.00,,,0.00,meteohub,2013-01-17 08:37:00,
2013-01-17 03:42:00,62.1,61.7,30.06,South,180,0.0,0.0,99,0.00,,,0.00,meteohub,2013-01-17 08:42:00,
2013-01-17 03:47:00,61.9,61.5,30.05,South,180,0.0,0.0,99,0.00,,,0.00,meteohub,2013-01-17 08:47:00,
2013-01-17 03:52:00,61.9,61.5,30.05,South,180,0.0,0.0,99,0.00,,,0.00,meteohub,2013-01-17 08:52:00,
2013-01-17 03:57:00,61.9,61.5,30.05,South,180,0.0,0.0,99,0.00,,,0.00,meteohub,2013-01-17 08:57:00,
2013-01-17 04:02:00,61.9,61.5,30.05,South,180,0.0,0.0,99,0.00,,,0.00,meteohub,2013-01-17 09:02:00,
2013-01-17 04:07:00,61.9,61.5,30.06,South,180,0.0,0.0,99,0.00,,,0.00,meteohub,2013-01-17 09:07:00,
2013-01-17 04:12:00,61.5,61.2,30.06,South,180,0.0,0.0,99,0.00,,,0.00,meteohub,2013-01-17 09:12:00,
2013-01-17 04:17:00,61.3,61.0,30.06,South,180,0.0,0.0,99,0.00,,,0.00,meteohub,2013-01-17 09:17:00,
2013-01-17 04:22:00,61.2,60.8,30.05,South,180,0.0,0.0,99,0.00,,,0.00,meteohub,2013-01-17 09:22:00,
2013-01-17 04:27:00,61.2,60.8,30.05,South,180,0.0,0.0,99,0.00,,,0.00,meteohub,2013-01-17 09:27:00,
2013-01-17 04:32:00,61.2,60.8,30.06,South,180,0.0,0.0,99,0.00,,,0.00,meteohub,2013-01-17 09:32:00,
2013-01-17 04:37:00,61.0,60.6,30.05,South,180,0.0,0.0,99,0.00,,,0.00,meteohub,2013-01-17 09:37:00,
2013-01-17 04:42:00,61.0,60.6,30.05,South,180,0.0,0.0,99,0.00,,,0.00,meteohub,2013-01-17 09:42:00,
2013-01-17 04:47:00,61.0,60.6,30.05,South,180,0.0,0.0,99,0.00,,,0.00,meteohub,2013-01-17 09:47:00,
2013-01-17 04:52:00,60.8,60.4,30.05,South,180,0.0,0.0,99,0.00,,,0.00,meteohub,2013-01-17 09:52:00,
2013-01-17 04:57:00,60.8,60.4,30.05,South,180,0.0,0.0,99,0.00,,,0.00,meteohub,2013-01-17 09:57:00,
2013-01-17 05:02:00,60.8,60.4,30.05,South,180,0.0,0.0,99,0.00,,,0.00,meteohub,2013-01-17 10:02:00,
2013-01-17 05:07:00,60.8,60.4,30.05,South,180,0.0,0.0,99,0.00,,,0.00,meteohub,2013-01-17 10:07:00,
2013-01-17 05:12:00,60.4,60.1,30.05,South,180,0.0,0.0,99,0.00,,,0.00,meteohub,2013-01-17 10:12:00,
2013-01-17 05:17:00,60.4,60.1,30.04,South,180,0.0,0.0,99,0.00,,,0.00,meteohub,2013-01-17 10:17:00,
2013-01-17 05:22:00,60.4,60.1,30.05,South,180,0.0,0.0,99,0.00,,,0.00,meteohub,2013-01-17 10:22:00,
2013-01-17 05:27:00,60.3,59.9,30.05,South,180,0.0,0.0,99,0.00,,,0.00,meteohub,2013-01-17 10:27:00,
2013-01-17 05:32:00,60.3,59.9,30.05,South,180,0.0,0.0,99,0.00,,,0.00,meteohub,2013-01-17 10:32:00,
2013-01-17 05:37:00,60.3,59.9,30.05,South,180,0.0,0.0,99,0.00,,,0.00,meteohub,2013-01-17 10:37:00,
2013-01-17 05:42:00,60.3,59.9,30.05,South,180,0.0,0.0,99,0.00,,,0.00,meteohub,2013-01-17 10:42:00,
2013-01-17 05:47:00,60.1,59.7,30.05,South,180,0.0,0.0,99,0.00,,,0.00,meteohub,2013-01-17 10:47:00,
2013-01-17 05:52:00,59.9,59.5,30.06,South,180,0.0,0.0,99,0.00,,,0.00,meteohub,2013-01-17 10:52:00,
2013-01-17 05:57:00,59.9,59.5,30.06,South,180,0.0,0.0,99,0.00,,,0.00,meteohub,2013-01-17 10:57:00,
2013-01-17 06:02:00,60.1,59.7,30.06,South,180,0.0,0.0,99,0.00,,,0.00,meteohub,2013-01-17 11:02:00,
2013-01-17 06:07:00,60.1,59.7,30.06,South,180,0.0,0.0,99,0.00,,,0.00,meteohub,2013-01-17 11:07:00,
2013-01-17 06:12:00,60.1,59.7,30.06,South,180,0.0,0.0,99,0.00,,,0.00,meteohub,2013-01-17 11:12:00,
2013-01-17 06:17:00,60.3,59.9,30.06,South,180,0.0,0.0,99,0.00,,,0.00,meteohub,2013-01-17 11:17:00,
2013-01-17 06:22:00,60.6,60.3,30.06,South,180,0.0,0.0,99,0.00,,,0.00,meteohub,2013-01-17 11:22:00,
2013-01-17 06:27:00,61.0,60.6,30.06,South,180,0.0,0.0,99,0.00,,,0.00,meteohub,2013-01-17 11:27:00,
2013-01-17 06:32:00,61.3,61.0,30.06,South,180,0.0,0.0,99,0.00,,,0.00,meteohub,2013-01-17 11:32:00,
2013-01-17 06:37:00,61.5,61.2,30.06,South,180,0.0,0.0,99,0.00,,,0.00,meteohub,2013-01-17 11:37:00,
2013-01-17 06:42:00,61.5,61.2,30.06,South,180,0.0,0.0,99,0.00,,,0.00,meteohub,2013-01-17 11:42:00,
2013-01-17 06:48:00,61.5,61.2,30.06,South,180,0.0,0.0,99,0.00,,,0.00,meteohub,2013-01-17 11:48:00,
2013-01-17 06:53:00,61.5,61.2,30.07,South,180,0.0,0.0,99,0.00,,,0.00,meteohub,2013-01-17 11:53:00,
2013-01-17 06:58:00,61.3,61.0,30.07,South,180,0.0,0.0,99,0.00,,,0.00,meteohub,2013-01-17 11:58:00,
2013-01-17 07:03:00,61.3,61.0,30.07,South,180,0.0,0.0,99,0.00,,,0.00,meteohub,2013-01-17 12:03:00,
2013-01-17 07:08:00,61.0,60.6,30.07,South,180,0.0,0.0,99,0.00,,,0.00,meteohub,2013-01-17 12:08:00,
2013-01-17 07:13:00,60.8,60.4,30.07,South,180,0.0,0.0,99,0.00,,,0.00,meteohub,2013-01-17 12:13:00,
2013-01-17 07:18:00,60.8,60.4,30.07,South,180,0.0,0.0,99,0.00,,,0.00,meteohub,2013-01-17 12:18:00,
2013-01-17 07:23:00,60.8,60.4,30.07,South,180,0.0,0.0,99,0.00,,,0.00,meteohub,2013-01-17 12:23:00,
2013-01-17 07:28:00,61.0,60.6,30.07,South,180,0.0,0.0,99,0.00,,,0.00,meteohub,2013-01-17 12:28:00,
2013-01-17 07:33:00,61.3,61.0,30.08,South,180,0.0,0.0,99,0.00,,,0.00,meteohub,2013-01-17 12:33:00,
2013-01-17 07:38:00,61.5,61.2,30.08,South,180,0.0,0.0,99,0.00,,,0.00,meteohub,2013-01-17 12:38:00,
2013-01-17 07:43:00,62.2,61.9,30.08,South,180,0.0,0.0,99,0.00,,,0.00,meteohub,2013-01-17 12:43:00,
2013-01-17 07:49:00,62.6,62.2,30.08,South,180,0.0,0.0,99,0.00,,,0.00,meteohub,2013-01-17 12:49:00,
2013-01-17 07:54:00,63.0,62.6,30.08,South,180,0.0,0.0,99,0.00,,,0.00,meteohub,2013-01-17 12:54:00,
2013-01-17 07:59:00,63.5,63.1,30.08,South,180,0.0,0.0,99,0.00,,,0.00,meteohub,2013-01-17 12:59:00,
2013-01-17 08:04:00,63.5,63.1,30.08,South,180,0.0,0.0,99,0.00,,,0.00,meteohub,2013-01-17 13:04:00,
2013-01-17 08:09:00,65.1,64.8,30.09,South,180,0.0,0.0,99,0.00,,,0.00,meteohub,2013-01-17 13:09:00,
2013-01-17 08:14:00,65.8,65.5,30.09,South,180,0.0,0.0,99,0.00,,,0.00,meteohub,2013-01-17 13:14:00,
2013-01-17 08:19:00,66.2,65.8,30.09,South,180,0.0,0.0,99,0.00,,,0.00,meteohub,2013-01-17 13:19:00,
2013-01-17 08:24:00,66.7,66.4,30.08,South,180,0.0,0.0,99,0.00,,,0.00,meteohub,2013-01-17 13:24:00,
2013-01-17 08:29:00,67.3,66.9,30.09,South,180,0.0,0.0,99,0.00,,,0.00,meteohub,2013-01-17 13:29:00,
2013-01-17 08:34:00,68.0,67.6,30.09,SSW,203,4.0,0.0,99,0.00,,,0.00,meteohub,2013-01-17 13:34:00,
2013-01-17 08:39:00,68.5,68.2,30.09,SSW,203,2.0,0.0,99,0.00,,,0.00,meteohub,2013-01-17 13:39:00,
2013-01-17 08:45:00,68.9,68.5,30.09,SSW,203,2.0,4.0,99,0.00,,,0.00,meteohub,2013-01-17 13:45:00,
2013-01-17 08:50:00,69.6,69.3,30.09,SSW,203,2.0,4.0,99,0.00,,,0.00,meteohub,2013-01-17 13:50:00,
2013-01-17 08:55:00,70.5,70.2,30.09,SSW,203,3.0,4.0,99,0.00,,,0.00,meteohub,2013-01-17 13:55:00,
2013-01-17 09:00:00,71.1,70.7,30.09,SSW,203,4.0,4.0,99,0.00,,,0.00,meteohub,2013-01-17 14:00:00,
2013-01-17 09:05:00,71.8,71.4,30.09,West,270,4.0,4.0,99,0.00,,,0.00,meteohub,2013-01-17 14:05:00,
2013-01-17 09:10:00,72.1,71.8,30.09,SW,225,4.0,5.0,99,0.00,,,0.00,meteohub,2013-01-17 14:10:00,
2013-01-17 09:15:00,72.7,72.3,30.10,SW,225,4.0,5.0,99,0.00,,,0.00,meteohub,2013-01-17 14:15:00,
2013-01-17 09:20:00,73.4,73.0,30.10,West,270,2.0,5.0,99,0.00,,,0.00,meteohub,2013-01-17 14:20:00,
2013-01-17 09:25:00,74.3,73.9,30.09,West,270,4.0,4.0,99,0.00,,,0.00,meteohub,2013-01-17 14:25:00,
2013-01-17 09:30:00,74.8,74.5,30.09,NW,315,6.0,6.0,99,0.00,,,0.00,meteohub,2013-01-17 14:30:00,
2013-01-17 09:35:00,75.2,74.8,30.10,West,270,6.0,8.0,99,0.00,,,0.00,meteohub,2013-01-17 14:35:00,
2013-01-17 09:41:00,75.6,75.2,30.10,WNW,293,8.0,8.0,99,0.00,,,0.00,meteohub,2013-01-17 14:41:00,
2013-01-17 09:46:00,75.9,75.6,30.10,West,270,4.0,8.0,99,0.00,,,0.00,meteohub,2013-01-17 14:46:00,
2013-01-17 09:51:00,76.5,74.8,30.10,NW,315,5.0,8.0,95,0.00,,,0.00,meteohub,2013-01-17 14:51:00,
2013-01-17 09:56:00,76.8,74.3,30.10,West,270,7.0,10.0,92,0.00,,,0.00,meteohub,2013-01-17 14:56:00,
2013-01-17 10:01:00,77.0,74.1,30.10,West,270,7.0,10.0,91,0.00,,,0.00,meteohub,2013-01-17 15:01:00,
2013-01-17 10:06:00,77.4,72.9,30.10,West,270,7.0,9.0,86,0.00,,,0.00,meteohub,2013-01-17 15:06:00,
2013-01-17 10:11:00,77.5,72.7,30.10,West,270,8.0,9.0,85,0.00,,,0.00,meteohub,2013-01-17 15:11:00,
2013-01-17 10:16:00,77.9,72.3,30.10,West,270,6.0,8.0,83,0.00,,,0.00,meteohub,2013-01-17 15:16:00,
2013-01-17 10:21:00,78.3,70.9,30.10,SW,225,7.0,8.0,78,0.00,,,0.00,meteohub,2013-01-17 15:21:00,
2013-01-17 10:26:00,78.6,70.9,30.09,West,270,7.0,12.0,77,0.00,,,0.00,meteohub,2013-01-17 15:26:00,
2013-01-17 10:31:00,79.2,70.9,30.09,West,270,8.0,12.0,76,0.00,,,0.00,meteohub,2013-01-17 15:31:00,
2013-01-17 10:36:00,79.7,70.3,30.09,NW,315,6.0,12.0,73,0.00,,,0.00,meteohub,2013-01-17 15:36:00,
2013-01-17 10:41:00,79.7,69.4,30.09,NW,315,11.0,11.0,71,0.00,,,0.00,meteohub,2013-01-17 15:41:00,
2013-01-17 10:47:00,79.9,68.7,30.09,NW,315,6.0,14.0,69,0.00,,,0.00,meteohub,2013-01-17 15:47:00,
2013-01-17 10:52:00,80.4,68.9,30.09,West,270,7.0,14.0,68,0.00,,,0.00,meteohub,2013-01-17 15:52:00,
2013-01-17 10:57:00,80.8,68.7,30.09,NW,315,10.0,14.0,67,0.00,,,0.00,meteohub,2013-01-17 15:57:00,
2013-01-17 11:02:00,80.8,68.0,30.09,NW,315,6.0,10.0,65,0.00,,,0.00,meteohub,2013-01-17 16:02:00,
2013-01-17 11:07:00,80.6,68.5,30.09,NW,315,8.0,10.0,67,0.00,,,0.00,meteohub,2013-01-17 16:07:00,
2013-01-17 11:12:00,80.6,68.5,30.09,West,270,8.0,11.0,67,0.00,,,0.00,meteohub,2013-01-17 16:12:00,
2013-01-17 11:17:00,80.6,68.2,30.09,West,270,9.0,11.0,66,0.00,,,0.00,meteohub,2013-01-17 16:17:00,
2013-01-17 11:22:00,81.0,69.8,30.08,West,270,6.0,11.0,69,0.00,,,0.00,meteohub,2013-01-17 16:22:00,
2013-01-17 11:27:00,81.3,66.6,30.08,NE,45,8.0,10.0,61,0.00,,,0.00,meteohub,2013-01-17 16:27:00,
2013-01-17 11:32:00,81.1,66.9,30.08,North,0,11.0,11.0,62,0.00,,,0.00,meteohub,2013-01-17 16:32:00,
2013-01-17 11:37:00,80.4,66.2,30.07,NW,315,10.0,11.0,62,0.00,,,0.00,meteohub,2013-01-17 16:37:00,
2013-01-17 11:42:00,79.9,66.2,30.08,NW,315,5.0,11.0,63,0.00,,,0.00,meteohub,2013-01-17 16:42:00,
2013-01-17 11:47:00,79.7,66.9,30.08,NW,315,7.0,11.0,65,0.00,,,0.00,meteohub,2013-01-17 16:47:00,
2013-01-17 11:52:00,80.6,66.9,30.07,West,270,9.0,10.0,63,0.00,,,0.00,meteohub,2013-01-17 16:52:00,
2013-01-17 11:57:00,80.8,66.6,30.07,NE,45,9.0,9.0,62,0.00,,,0.00,meteohub,2013-01-17 16:57:00,
2013-01-17 12:02:00,81.1,66.9,30.07,NW,315,8.0,12.0,62,0.00,,,0.00,meteohub,2013-01-17 17:02:00,
2013-01-17 12:07:00,81.3,66.6,30.06,West,270,9.0,12.0,61,0.00,,,0.00,meteohub,2013-01-17 17:07:00,
2013-01-17 12:12:00,81.5,66.7,30.06,WNW,293,4.0,12.0,61,0.00,,,0.00,meteohub,2013-01-17 17:12:00,
2013-01-17 12:17:00,81.7,66.4,30.06,West,270,8.0,12.0,60,0.00,,,0.00,meteohub,2013-01-17 17:17:00,
2013-01-17 12:22:00,82.0,66.7,30.06,South,180,8.0,11.0,60,0.00,,,0.00,meteohub,2013-01-17 17:22:00,
2013-01-17 12:27:00,82.2,66.0,30.05,West,270,5.0,10.0,58,0.00,,,0.00,meteohub,2013-01-17 17:27:00,
2013-01-17 12:32:00,82.8,66.6,30.05,NE,45,8.0,12.0,58,0.00,,,0.00,meteohub,2013-01-17 17:32:00,
2013-01-17 12:37:00,82.8,64.9,30.04,West,270,10.0,12.0,55,0.00,,,0.00,meteohub,2013-01-17 17:37:00,
2013-01-17 12:42:00,82.6,66.4,30.04,North,0,5.0,11.0,58,0.00,,,0.00,meteohub,2013-01-17 17:42:00,
2013-01-17 12:47:00,82.6,65.3,30.04,NW,315,9.0,11.0,56,0.00,,,0.00,meteohub,2013-01-17 17:47:00,
2013-01-17 12:52:00,81.1,65.5,30.04,NW,315,9.0,13.0,59,0.00,,,0.00,meteohub,2013-01-17 17:52:00,
2013-01-17 12:57:00,79.3,66.6,30.04,NW,315,10.0,16.0,65,0.00,,,0.00,meteohub,2013-01-17 17:57:00,
2013-01-17 13:02:00,78.6,67.6,30.04,West,270,7.0,16.0,69,0.00,,,0.00,meteohub,2013-01-17 18:02:00,
2013-01-17 13:07:00,78.8,67.8,30.04,SW,225,8.0,16.0,69,0.00,,,0.00,meteohub,2013-01-17 18:07:00,
2013-01-17 13:12:00,79.3,68.4,30.04,NW,315,9.0,13.0,69,0.00,,,0.00,meteohub,2013-01-17 18:12:00,
2013-01-17 13:17:00,79.3,68.7,30.03,WNW,293,5.0,17.0,70,0.00,,,0.00,meteohub,2013-01-17 18:17:00,
2013-01-17 13:22:00,79.0,69.3,30.03,North,0,6.0,17.0,72,0.00,,,0.00,meteohub,2013-01-17 18:22:00,
2013-01-17 13:27:00,77.5,67.8,30.03,North,0,14.0,15.0,72,0.00,,,0.00,meteohub,2013-01-17 18:27:00,
2013-01-17 13:32:00,77.5,68.2,30.03,North,0,9.0,15.0,73,0.00,,,0.00,meteohub,2013-01-17 18:32:00,
2013-01-17 13:37:00,77.0,68.0,30.03,NW,315,8.0,14.0,74,0.00,,,0.00,meteohub,2013-01-17 18:37:00,
2013-01-17 13:42:00,77.2,67.5,30.03,NE,45,5.0,14.0,72,0.00,,,0.00,meteohub,2013-01-17 18:42:00,
2013-01-17 13:47:00,77.7,67.6,30.03,North,0,8.0,14.0,71,0.00,,,0.00,meteohub,2013-01-17 18:47:00,
2013-01-17 13:52:00,77.5,66.9,30.03,North,0,13.0,13.0,70,0.00,,,0.00,meteohub,2013-01-17 18:52:00,
2013-01-17 13:57:00,77.5,66.9,30.02,North,0,8.0,13.0,70,0.00,,,0.00,meteohub,2013-01-17 18:57:00,
2013-01-17 14:02:00,76.5,66.4,30.03,NE,45,14.0,14.0,71,0.00,,,0.00,meteohub,2013-01-17 19:02:00,
2013-01-17 14:07:00,76.1,67.6,30.02,NE,45,7.0,17.0,75,0.00,,,0.00,meteohub,2013-01-17 19:07:00,
2013-01-17 14:12:00,76.1,67.3,30.03,North,0,15.0,17.0,74,0.00,,,0.00,meteohub,2013-01-17 19:12:00,
2013-01-17 14:18:00,74.7,66.9,30.03,East,90,13.0,15.0,77,0.00,,,0.00,meteohub,2013-01-17 19:18:00,
2013-01-17 14:23:00,73.2,67.1,30.03,ENE,68,8.0,16.0,81,0.00,,,0.00,meteohub,2013-01-17 19:23:00,
2013-01-17 14:28:00,72.7,67.3,30.04,North,0,10.0,16.0,83,0.00,,,0.00,meteohub,2013-01-17 19:28:00,
2013-01-17 14:33:00,72.5,67.1,30.04,West,270,7.0,16.0,83,0.00,,,0.00,meteohub,2013-01-17 19:33:00,
2013-01-17 14:38:00,72.5,65.7,30.04,NE,45,12.0,15.0,79,0.00,,,0.00,meteohub,2013-01-17 19:38:00,
2013-01-17 14:43:00,71.4,65.7,30.04,SE,135,11.0,14.0,82,0.00,,,0.00,meteohub,2013-01-17 19:43:00,
2013-01-17 14:48:00,71.2,65.8,30.04,NW,315,10.0,19.0,83,0.00,,,0.00,meteohub,2013-01-17 19:48:00,
2013-01-17 14:53:00,71.1,65.3,30.04,SE,135,14.0,19.0,82,0.00,,,0.00,meteohub,2013-01-17 19:53:00,
2013-01-17 14:58:00,70.5,64.8,30.04,East,90,12.0,19.0,82,0.00,,,0.00,meteohub,2013-01-17 19:58:00,
2013-01-17 15:04:00,70.2,65.1,30.04,East,90,9.0,17.0,84,0.00,,,0.00,meteohub,2013-01-17 20:04:00,
2013-01-17 15:09:00,69.8,64.8,30.05,NE,45,10.0,17.0,84,0.00,,,0.00,meteohub,2013-01-17 20:09:00,
2013-01-17 15:14:00,69.3,65.3,30.05,NE,45,11.0,14.0,87,0.00,,,0.00,meteohub,2013-01-17 20:14:00,
2013-01-17 15:19:00,68.9,64.9,30.06,NE,45,6.0,17.0,87,0.00,,,0.00,meteohub,2013-01-17 20:19:00,
2013-01-17 15:24:00,68.4,64.6,30.06,North,0,5.0,17.0,88,0.00,,,0.00,meteohub,2013-01-17 20:24:00,
2013-01-17 15:29:00,68.0,64.4,30.06,North,0,13.0,16.0,88,0.00,,,0.00,meteohub,2013-01-17 20:29:00,
2013-01-17 15:34:00,67.5,64.0,30.06,South,180,15.0,16.0,89,0.00,,,0.00,meteohub,2013-01-17 20:34:00,
2013-01-17 15:39:00,66.9,64.8,30.07,North,0,7.0,18.0,93,0.00,,,0.00,meteohub,2013-01-17 20:39:00,
2013-01-17 15:44:00,66.4,64.6,30.07,NE,45,10.0,18.0,94,0.00,,,0.00,meteohub,2013-01-17 20:44:00,
2013-01-17 15:49:00,65.8,63.7,30.07,NE,45,15.0,18.0,93,0.00,,,0.00,meteohub,2013-01-17 20:49:00,
2013-01-17 15:55:00,65.3,63.1,30.08,NE,45,16.0,17.0,93,0.00,,,0.00,meteohub,2013-01-17 20:55:00,
2013-01-17 16:00:00,64.9,62.8,30.08,North,0,8.0,16.0,93,0.00,,,0.00,meteohub,2013-01-17 21:00:00,
2013-01-17 16:05:00,64.6,62.8,30.09,NE,45,5.0,17.0,94,0.00,,,0.00,meteohub,2013-01-17 21:05:00,
2013-01-17 16:10:00,64.0,62.2,30.09,North,0,14.0,17.0,94,0.00,,,0.00,meteohub,2013-01-17 21:10:00,
2013-01-17 16:15:00,63.7,61.9,30.09,East,90,10.0,17.0,94,0.00,,,0.00,meteohub,2013-01-17 21:15:00,
2013-01-17 16:20:00,63.3,61.9,30.09,NE,45,9.0,19.0,95,0.00,,,0.00,meteohub,2013-01-17 21:20:00,
2013-01-17 16:25:00,63.3,61.3,30.09,SW,225,6.0,19.0,93,0.00,,,0.00,meteohub,2013-01-17 21:25:00,
2013-01-17 16:30:00,63.3,61.5,30.09,SE,135,7.0,15.0,94,0.00,,,0.00,meteohub,2013-01-17 21:30:00,
2013-01-17 16:35:00,63.3,61.0,30.09,North,0,7.0,13.0,92,0.00,,,0.00,meteohub,2013-01-17 21:35:00,
2013-01-17 16:40:00,63.3,60.6,30.09,SE,135,8.0,15.0,91,0.00,,,0.00,meteohub,2013-01-17 21:40:00,
2013-01-17 16:45:00,63.1,60.4,30.10,North,0,8.0,15.0,91,0.00,,,0.00,meteohub,2013-01-17 21:45:00,
2013-01-17 16:50:00,63.0,59.9,30.10,NE,45,11.0,15.0,90,0.00,,,0.00,meteohub,2013-01-17 21:50:00,
2013-01-17 16:55:00,63.0,59.7,30.11,NW,315,10.0,12.0,89,0.00,,,0.00,meteohub,2013-01-17 21:55:00,
2013-01-17 17:01:00,63.0,59.0,30.11,SE,135,12.0,12.0,87,0.00,,,0.00,meteohub,2013-01-17 22:01:00,
2013-01-17 17:06:00,62.8,58.5,30.11,NW,315,13.0,13.0,86,0.00,,,0.00,meteohub,2013-01-17 22:06:00,
2013-01-17 17:11:00,62.8,58.5,30.11,NW,315,12.0,15.0,86,0.00,,,0.00,meteohub,2013-01-17 22:11:00,
2013-01-17 17:16:00,62.8,58.5,30.11,North,0,17.0,17.0,86,0.00,,,0.00,meteohub,2013-01-17 22:16:00,
2013-01-17 17:21:00,62.8,58.5,30.11,NE,45,8.0,17.0,86,0.00,,,0.00,meteohub,2013-01-17 22:21:00,
2013-01-17 17:26:00,62.8,58.5,30.11,North,0,6.0,17.0,86,0.00,,,0.00,meteohub,2013-01-17 22:26:00,
2013-01-17 17:31:00,63.0,58.6,30.11,East,90,4.0,17.0,86,0.00,,,0.00,meteohub,2013-01-17 22:31:00,
2013-01-17 17:36:00,63.0,58.5,30.11,SW,225,3.0,8.0,85,0.00,,,0.00,meteohub,2013-01-17 22:36:00,
2013-01-17 17:41:00,63.0,58.5,30.11,SE,135,4.0,8.0,85,0.00,,,0.00,meteohub,2013-01-17 22:41:00,
2013-01-17 17:46:00,63.0,58.1,30.11,NE,45,4.0,9.0,84,0.00,,,0.00,meteohub,2013-01-17 22:46:00,
2013-01-17 17:51:00,63.0,57.7,30.12,SE,135,4.0,9.0,83,0.00,,,0.00,meteohub,2013-01-17 22:51:00,
2013-01-17 17:56:00,63.1,57.2,30.12,NE,45,8.0,9.0,81,0.00,,,0.00,meteohub,2013-01-17 22:56:00,
2013-01-17 18:02:00,62.8,56.1,30.12,North,0,4.0,8.0,79,0.00,,,0.00,meteohub,2013-01-17 23:02:00,
2013-01-17 18:07:00,63.1,55.4,30.12,SW,225,14.0,14.0,76,0.00,,,0.00,meteohub,2013-01-17 23:07:00,
2013-01-17 18:12:00,63.1,55.0,30.12,SE,135,4.0,14.0,75,0.00,,,0.00,meteohub,2013-01-17 23:12:00,
2013-01-17 18:17:00,63.1,54.7,30.12,NW,315,7.0,14.0,74,0.00,,,0.00,meteohub,2013-01-17 23:17:00,
2013-01-17 18:22:00,63.1,54.7,30.12,East,90,13.0,14.0,74,0.00,,,0.00,meteohub,2013-01-17 23:22:00,
2013-01-17 18:27:00,63.1,54.7,30.13,NE,45,5.0,13.0,74,0.00,,,0.00,meteohub,2013-01-17 23:27:00,
2013-01-17 18:32:00,63.1,55.0,30.12,East,90,3.0,13.0,75,0.00,,,0.00,meteohub,2013-01-17 23:32:00,
2013-01-17 18:37:00,63.1,55.0,30.12,East,90,3.0,13.0,75,0.00,,,0.00,meteohub,2013-01-17 23:37:00,
2013-01-17 18:42:00,63.0,54.5,30.13,NE,45,10.0,10.0,74,0.00,,,0.00,meteohub,2013-01-17 23:42:00,
2013-01-17 18:47:00,63.0,54.1,30.13,East,90,8.0,15.0,73,0.00,,,0.00,meteohub,2013-01-17 23:47:00,
2013-01-17 18:52:00,63.0,54.1,30.13,NE,45,9.0,15.0,73,0.00,,,0.00,meteohub,2013-01-17 23:52:00,
2013-01-17 18:57:00,63.0,53.8,30.13,East,90,10.0,15.0,72,0.00,,,0.00,meteohub,2013-01-17 23:57:00,
2013-01-17 19:02:00,63.0,53.8,30.13,NW,315,11.0,13.0,72,0.00,,,0.00,meteohub,2013-01-18 00:02:00,
2013-01-17 19:07:00,63.0,53.8,30.13,NW,315,11.0,11.0,72,0.00,,,0.00,meteohub,2013-01-18 00:07:00,
2013-01-17 19:12:00,63.0,53.8,30.13,SE,135,4.0,11.0,72,0.00,,,0.00,meteohub,2013-01-18 00:12:00,
2013-01-17 19:17:00,62.8,53.6,30.14,North,0,2.0,11.0,72,0.00,,,0.00,meteohub,2013-01-18 00:17:00,
2013-01-17 19:22:00,62.8,53.6,30.14,North,0,4.0,11.0,72,0.00,,,0.00,meteohub,2013-01-18 00:22:00,
2013-01-17 19:27:00,62.8,53.2,30.14,NE,45,7.0,8.0,71,0.00,,,0.00,meteohub,2013-01-18 00:27:00,
2013-01-17 19:32:00,62.8,53.2,30.14,East,90,4.0,8.0,71,0.00,,,0.00,meteohub,2013-01-18 00:32:00,
2013-01-17 19:38:00,62.6,53.1,30.14,NE,45,8.0,8.0,71,0.00,,,0.00,meteohub,2013-01-18 00:38:00,
2013-01-17 19:43:00,62.6,53.1,30.14,NE,45,3.0,8.0,71,0.00,,,0.00,meteohub,2013-01-18 00:43:00,
2013-01-17 19:48:00,62.6,52.3,30.14,SE,135,11.0,11.0,69,0.00,,,0.00,meteohub,2013-01-18 00:48:00,
2013-01-17 19:53:00,62.6,52.0,30.14,NW,315,4.0,11.0,68,0.00,,,0.00,meteohub,2013-01-18 00:53:00,
2013-01-17 19:58:00,62.6,50.7,30.14,NE,45,8.0,11.0,65,0.00,,,0.00,meteohub,2013-01-18 00:58:00,
2013-01-17 20:03:00,62.4,50.5,30.15,South,180,3.0,11.0,65,0.00,,,0.00,meteohub,2013-01-18 01:03:00,
2013-01-17 20:08:00,62.4,49.6,30.15,SE,135,11.0,11.0,63,0.00,,,0.00,meteohub,2013-01-18 01:08:00,
2013-01-17 20:13:00,62.4,50.0,30.14,NW,315,4.0,11.0,64,0.00,,,0.00,meteohub,2013-01-18 01:13:00,
2013-01-17 20:18:00,62.2,50.0,30.15,NE,45,8.0,11.0,64,0.00,,,0.00,meteohub,2013-01-18 01:18:00,
2013-01-17 20:23:00,62.2,49.5,30.15,East,90,4.0,11.0,63,0.00,,,0.00,meteohub,2013-01-18 01:23:00,
2013-01-17 20:28:00,62.1,49.3,30.15,NE,45,8.0,9.0,63,0.00,,,0.00,meteohub,2013-01-18 01:28:00,
2013-01-17 20:34:00,61.9,49.1,30.15,NE,45,8.0,11.0,63,0.00,,,0.00,meteohub,2013-01-18 01:34:00,
2013-01-17 20:39:00,61.9,49.1,30.16,NE,45,8.0,11.0,63,0.00,,,0.00,meteohub,2013-01-18 01:39:00,
2013-01-17 20:44:00,61.7,48.9,30.16,NE,45,8.0,11.0,63,0.00,,,0.00,meteohub,2013-01-18 01:44:00,
2013-01-17 20:49:00,61.7,48.9,30.16,South,180,4.0,9.0,63,0.00,,,0.00,meteohub,2013-01-18 01:49:00,
2013-01-17 20:54:00,61.7,48.9,30.16,NE,45,5.0,10.0,63,0.00,,,0.00,meteohub,2013-01-18 01:54:00,
2013-01-17 20:59:00,61.7,49.5,30.16,North,0,6.0,10.0,64,0.00,,,0.00,meteohub,2013-01-18 01:59:00,
2013-01-17 21:04:00,61.5,49.3,30.16,NW,315,7.0,10.0,64,0.00,,,0.00,meteohub,2013-01-18 02:04:00,
2013-01-17 21:09:00,61.7,49.5,30.16,NE,45,8.0,8.0,64,0.00,,,0.00,meteohub,2013-01-18 02:09:00,
2013-01-17 21:14:00,61.7,49.8,30.15,North,0,4.0,7.0,65,0.00,,,0.00,meteohub,2013-01-18 02:14:00,
2013-01-17 21:19:00,61.5,49.6,30.16,North,0,5.0,8.0,65,0.00,,,0.00,meteohub,2013-01-18 02:19:00,
2013-01-17 21:24:00,61.7,49.8,30.16,East,90,8.0,11.0,65,0.00,,,0.00,meteohub,2013-01-18 02:24:00,
2013-01-17 21:30:00,61.7,49.8,30.15,East,90,8.0,11.0,65,0.00,,,0.00,meteohub,2013-01-18 02:30:00,
2013-01-17 21:35:00,61.5,49.6,30.16,NE,45,6.0,11.0,65,0.00,,,0.00,meteohub,2013-01-18 02:35:00,
2013-01-17 21:40:00,61.5,50.0,30.16,SW,225,7.0,8.0,66,0.00,,,0.00,meteohub,2013-01-18 02:40:00,
2013-01-17 21:45:00,61.5,50.0,30.16,East,90,6.0,9.0,66,0.00,,,0.00,meteohub,2013-01-18 02:45:00,
2013-01-17 21:50:00,61.5,50.0,30.16,NE,45,7.0,9.0,66,0.00,,,0.00,meteohub,2013-01-18 02:50:00,
2013-01-17 21:55:00,61.5,50.0,30.16,West,270,4.0,11.0,66,0.00,,,0.00,meteohub,2013-01-18 02:55:00,
2013-01-17 22:00:00,61.3,49.8,30.16,NE,45,4.0,14.0,66,0.00,,,0.00,meteohub,2013-01-18 03:00:00,
2013-01-17 22:05:00,61.3,49.8,30.16,NE,45,4.0,14.0,66,0.00,,,0.00,meteohub,2013-01-18 03:05:00,
2013-01-17 22:10:00,61.2,50.2,30.16,North,0,11.0,14.0,67,0.00,,,0.00,meteohub,2013-01-18 03:10:00,
2013-01-17 22:16:00,61.0,50.4,30.16,SSW,203,5.0,13.0,68,0.00,,,0.00,meteohub,2013-01-18 03:16:00,
2013-01-17 22:21:00,60.8,50.2,30.17,NE,45,3.0,13.0,68,0.00,,,0.00,meteohub,2013-01-18 03:21:00,
2013-01-17 22:26:00,60.8,50.5,30.16,North,0,5.0,13.0,69,0.00,,,0.00,meteohub,2013-01-18 03:26:00,
2013-01-17 22:31:00,60.6,50.4,30.17,SW,225,2.0,10.0,69,0.00,,,0.00,meteohub,2013-01-18 03:31:00,
2013-01-17 22:36:00,60.4,50.2,30.16,ESE,113,2.0,11.0,69,0.00,,,0.00,meteohub,2013-01-18 03:36:00,
2013-01-17 22:41:00,60.4,50.2,30.17,NE,45,5.0,11.0,69,0.00,,,0.00,meteohub,2013-01-18 03:41:00,
2013-01-17 22:46:00,60.3,50.0,30.16,South,180,8.0,11.0,69,0.00,,,0.00,meteohub,2013-01-18 03:46:00,
2013-01-17 22:51:00,60.4,50.2,30.17,NE,45,7.0,9.0,69,0.00,,,0.00,meteohub,2013-01-18 03:51:00,
2013-01-17 22:56:00,60.3,49.6,30.17,NNW,338,11.0,11.0,68,0.00,,,0.00,meteohub,2013-01-18 03:56:00,
2013-01-17 23:01:00,60.3,49.6,30.16,NE,45,8.0,11.0,68,0.00,,,0.00,meteohub,2013-01-18 04:01:00,
2013-01-17 23:07:00,60.3,49.6,30.16,NE,45,8.0,11.0,68,0.00,,,0.00,meteohub,2013-01-18 04:07:00,
2013-01-17 23:12:00,60.3,49.6,30.16,SE,135,4.0,11.0,68,0.00,,,0.00,meteohub,2013-01-18 04:12:00,
2013-01-17 23:17:00,60.3,49.6,30.16,North,0,7.0,8.0,68,0.00,,,0.00,meteohub,2013-01-18 04:17:00,
2013-01-17 23:22:00,60.1,49.5,30.16,East,90,8.0,9.0,68,0.00,,,0.00,meteohub,2013-01-18 04:22:00,
2013-01-17 23:27:00,60.1,49.8,30.16,NE,45,4.0,9.0,69,0.00,,,0.00,meteohub,2013-01-18 04:27:00,
2013-01-17 23:32:00,59.9,49.6,30.16,North,0,3.0,8.0,69,0.00,,,0.00,meteohub,2013-01-18 04:32:00,
2013-01-17 23:37:00,59.7,49.5,30.16,West,270,3.0,10.0,69,0.00,,,0.00,meteohub,2013-01-18 04:37:00,
2013-01-17 23:42:00,59.5,49.3,30.15,NE,45,10.0,10.0,69,0.00,,,0.00,meteohub,2013-01-18 04:42:00,
2013-01-17 23:47:00,59.5,49.3,30.16,NE,45,8.0,10.0,69,0.00,,,0.00,meteohub,2013-01-18 04:47:00,
2013-01-17 23:52:00,59.7,49.5,30.15,North,0,8.0,10.0,69,0.00,,,0.00,meteohub,2013-01-18 04:52:00,
2013-01-17 23:57:00,59.7,49.5,30.16,East,90,5.0,10.0,69,0.00,,,0.00,meteohub,2013-01-18 04:57:00,